Location: Alma
(38.7220°N, 88.9090°W)
Time: 15:17:31
(UTC-06:00)

Vanguard 2 Rocket - Pass Details

Date: 24 November 2019
Orbit: 554 x 3326 km, 32.9° (Epoch: 10 December)

Event Time Altitude Azimuth Distance (km) Brightness Sun altitude
Rises 23:13:59 0° 239° (WSW) 3,067 - -71.0°
Reaches altitude 10° 23:16:46 10° 228° (SW) 1,962 - -71.1°
Maximum altitude 23:20:24 28° 168° (SSE) 1,060 - -71.4°
Drops below altitude 10° 23:23:49 10° 107° (ESE) 1,846 - -71.5°
Sets 23:26:21 0° 95° (E) 2,845 - -71.6°
